www.pogodaiklimat.ru

Погода и климат >> Архив погоды >> Россия >> Хабаровский край >> Нелькан


АРХИВ ПОГОДЫ в Нелькане

Время (UTC), дата Ветер
(напр.,м/с)
 
Видим.   Явления Облачность Т
(С)
Тd
(С)
f
(%)
Тe
(С)
Тes
(С)
Комфортность P
(гПа)
Po
(гПа)
Тmin
(С)
Tmax
(С)
R
(мм)
R24
(мм)
S
(см)
18 14.07 С 2 50 км 3/0
[Ci sp]
+13.4 +8.9 74 +13 +13 1007.9 970.7
21 14.07 СВ 2 50 км 3/0
[Ci sp]
+14.1 +9.6 74 +14 +16 1008.5 971.2 +13.4
00 15.07 ЮВ 1 50 км ясно +21.6 +14.3 63 +25 +36 комфорт 1007.7 971.5 +13.4
03 15.07 СВ 1 50 км 3/3 1000 м
[Cu med, cong]
+26.8 +16.7 54 +30 +42 душно 1005.8 970.4
06 15.07 В 1 50 км 4/4 1000 м
[Cu med, cong]
+28.0 +15.9 48 +31 +38 душно 1004.0 968.8
09 15.07 штиль 0 50 км 4/3 1000 м
[Cu med, cong Ac trans Ci sp]
+28.0 +17.0 51 +32 +33 душно 1003.4 968.2 +28.5
12 15.07 С 1 50 км 3/0
[Ac trans]
+22.2 +15.4 65 +26 +26 душно 1005.0 969.0
15 15.07 штиль 0 20 км 3/0
[Ac trans]
+16.2 +10.8 70 +16 +16 1006.4 969.6
18 15.07 штиль 0 50 км 3/0
[Ac trans Ci sp]
+12.4 +8.2 76 +12 +12 1007.2 969.9
21 15.07 Ю 1 50 км 8/0
[Ci sp]
+15.2 +10.3 73 +16 +18 1007.4 970.5 +12.4
00 16.07 Ю 2 50 км 3/3 1000 м
[Cu med, cong Ci sp]
+23.5 +16.5 65 +27 +34 душно 1006.2 970.4 +12.4
03 16.07 Ю 2 50 км 6/4 600 м
[Cb cap Ci sp]
+28.7 +19.0 56 +34 +42 очень
душно
1003.7 968.6
06 16.07 С 2 50 км 10/8 600 м
[Cb cap Ci sp]
+28.0 +18.7 57 +33 +35 очень
душно
1002.6 967.5
09 16.07 ЮЗ 1 50 км {ливн. осадки} 8/3 600 м
[Cb cap Ac trans Ci sp]
+22.8 +18.8 78 +29 +30 очень
душно
1004.5 967.8 +29.7 4
12 16.07 С 2 50 км {ливн. осадки} 9/4 1000 м
[Sc Ac trans Ci sp]
+21.0 +16.2 74 +25 +25 комфорт 1005.4 969.2
15 16.07 штиль 0 20 км 8/3 1000 м
[Sc Ac trans Ci sp]
+17.3 +12.8 75 +17 +17 1005.2 968.6
18 16.07 штиль 0 50 км 10/0
[Ac trans Cs]
+14.2 +10.8 80 +14 +14 1005.6 968.6
21 16.07 СВ 1 50 км 10/0
[Ac trans Cs]
+15.4 +11.7 79 +16 +18 1005.6 968.8 +14.2
00 17.07 Ю 2 50 км 10/0
[Ac trans Cs]
+18.8 +14.3 75 +20 +26 1005.2 968.9 +14.2
03 17.07 ЮЗ 1 50 км 10/0
[As op]
+21.4 +15.4 69 +25 +28 комфорт 1004.6 968.5
06 17.07 Ю 3 50 км 8/0
[Ac trans Ci sp]
+24.0 +16.0 61 +27 +33 жарко 1003.0 967.3
09 17.07 Ю 2 50 км 8/0
[Ac trans Ci sp]
+22.5 +14.9 62 +26 +27 жарко 1003.1 967.1 +24.2
12 17.07 ЮЗ 1 50 км 4/0
[Ac trans]
+19.0 +13.4 70 +21 +21 комфорт 1003.5 967.2
15 17.07 З 1 20 км 3/0
[Ac trans]
+14.9 +9.9 72 +15 +15 1004.3 967.3
18 17.07 З 1 50 км 3/0
[Ac trans]
+11.1 +7.6 79 +11 +11 1004.7 967.2
21 17.07 ЮЗ 1 500 м туман ?/? +9.6 +5.4 75 +9 +9 1004.8 967.2 +9.6
00 18.07 Ю 3 20 км в посл. час туман 3/0
[Ci sp]
+16.6 +11.9 74 +16 +24 1003.4 966.8 +9.6
03 18.07 Ю 2 20 км 4/0
[Ci sp]
+24.4 +14.1 53 +27 +40 жарко 1001.1 965.5
06 18.07 Ю 3 20 км ясно +25.9 +14.0 48 +28 +36 жарко 998.9 963.6
09 18.07 Ю 2 50 км 3/0
[Ci sp]
+25.0 +14.5 52 +28 +29 жарко 998.6 963.2 +26.0
12 18.07 З 2 20 км 4/0
[Ac trans Ci sp]
+20.0 +12.4 62 +22 +22 комфорт 999.2 963.1
15 18.07 С 1 20 км 5/0
[Ac trans]
+15.0 +10.0 72 +16 +16 1000.2 963.4
18 18.07 штиль 0 20 км 3/0
[Ac trans]
+12.9 +8.9 77 +12 +12 1001.8 964.7
21 18.07 Ю 1 10 км дымка 6/0
[Ac trans Ci sp]
+12.8 +8.8 77 +13 +15 1003.4 966.3 +12.8
00 19.07 С 2 50 км 10/8 1000 м
[Sc As op]
+15.8 +12.2 79 +16 +16 1005.1 968.3 +12.8
03 19.07 СВ 1 4000 м слаб. дождь 10/8 600 м
[Sc As op]
+13.8 +10.8 82 +14 +15 1006.5 969.3
06 19.07 Ю 1 50 км в посл. час дождь 10/8 1000 м
[Sc As op]
+14.0 +10.6 80 +14 +15 1007.5 970.3
09 19.07 штиль 0 50 км 5/3 1000 м
[Sc Ac trans]
+14.8 +10.4 75 +15 +16 1008.7 971.6 +15.8 4
12 19.07 З 1 50 км 8/0
[Ac trans]
+12.4 +8.8 79 +12 +12 1010.9 973.4
15 19.07 З 1 20 км 3/0
[Ac trans]
+11.1 +8.0 81 +11 +11 1012.3 974.6
18 19.07 штиль 0 500 м туман ?/? +6.8 +4.0 82 +6 +6 1014.0 975.6
21 19.07 З 1 500 м туман ?/? +8.5 +5.9 84 +8 +8 1015.3 977.1 +6.8
00 20.07 В 1 20 км в посл. час туман 8/8 1000 м
[]
+11.0 +8.4 84 +11 +13 1016.1 978.2 +6.8
03 20.07 СВ 2 50 км 8/6 600 м
[Cb cap Ci sp]
+17.7 +10.0 61 +18 +23 1014.5 977.5
06 20.07 СВ 3 50 км 9/8 1000 м
[Cu med, cong Ac trans Ci sp]
+19.1 +9.3 53 +20 +21 1013.5 976.7
09 20.07 СВ 1 50 км 8/1 1000 м
[Cu med, cong Ac trans Ci sp]
+17.4 +8.5 56 +18 +20 1014.3 977.3 +19.3
12 20.07 С 2 50 км 6/0
[Ac trans Ci sp]
+13.4 +7.0 65 +13 +13 1015.6 978.1
15 20.07 штиль 0 20 км 5/0
[Ci sp]
+9.3 +4.3 71 +9 +9 1017.5 979.3
18 20.07 штиль 0 50 км 5/0
[Ci sp]
+5.4 +1.9 78 +5 +5 1018.7 979.9
21 20.07 штиль 0 50 км 3/0
[Ci sp]
+7.8 +3.9 76 +7 +10 1018.3 979.9 +5.4
00 21.07 СВ 2 50 км 4/0
[Ci sp]
+13.8 +6.1 60 +13 +22 1017.4 979.8 +5.4
03 21.07 СВ 2 50 км 3/0
[Ci sp]
+17.9 +8.2 53 +18 +32 опасность
простуды
1016.0 979.0
06 21.07 ЮВ 1 50 км 5/0
[Ci sp]
+20.9 +8.6 45 +23 +33 комфорт 1013.6 977.0
09 21.07 С 1 50 км 3/0
[Ci sp]
+20.8 +12.5 59 +24 +26 комфорт 1012.4 976.0 +21.1
12 21.07 штиль 0 50 км 8/0
[Ac trans Ci sp]
+15.5 +8.0 61 +15 +15 1014.0 976.9
15 21.07 штиль 0 20 км 10/0
[Cs]
+9.7 +4.6 71 +9 +9 1014.5 976.6

 

Местоположение метеостанции Нелькан (Хабаровский край, Россия): широта 57.65 долгота 136.10 высота над уровнем моря 318 м.

В архиве по умолчанию представлена погода в Нелькане за последнюю неделю. Архивные данные за месяц целиком и за предыдущие месяцы, начиная с января 2011 года, Вы можете получить, выбрав интересующий диапазон дат из раскрывающегося списка и нажав кнопку "Ввод!".


*Определитесь, кто Вы:
робот инопланетянин человек

Внимание! Время в таблицах - всемирное. Для получения местного времени необходимо прибавить поправку, которая равна 10 ч.

Смотрите также архив погоды в соседних городах и на ближайших метеорологических станциях:

Погода в Усть-Юдоме (Якутия, Россия) (180 км)
Погода в Аяне (Хабаровский край, Россия) (180 км)
Погода в Югоренке (Якутия, Россия) (251 км)
Погода в Джане (Хабаровский край, Россия) (277 км)
Погода в Усть-Миле (Якутия, Россия) (284 км)
Погода в Чюльбю (Якутия, Россия) (309 км)
Погода в Усть-Мае (Якутия, Россия) (316 км)
Погода в Большом Шантаре (Хабаровский край, Россия) (325 км)
Погода в Чумикане (Хабаровский край, Россия) (330 км)
Погода в Токо (Якутия, Россия) (339 км)

Пояснения к столбцам:

Ветер - указаны скорость ветра в м/с - средняя за 10 мин, порывы в срок и между сроками (в фигурных скобках) и направление, откуда дует ветер: С - северный, СВ - северо-восточный, В - восточный, ЮВ - юго-восточный, Ю - южный, ЮЗ - юго-западный, З - западный, СЗ - северо-западный.
Видимость - горизонтальная дальность видимости в метрах или километрах. При видимости от 1 до 10 км при отсутствии осадков обычно наблюдается дымка, при ухудшении видимости до 1 км и менее - туман. В сухую погоду видимость может ухудшаться дымом, пылью или мглою.
Явления - указаны атмосферные явления, наблюдавшиеся в срок или в последний час перед сроком; фигурными скобками обозначены явления, наблюдавшиеся между сроками (за 1-3 часа до срока); квадратными скобками обозначены град или гололедные отложения с указанием их диаметра в мм.
Облачность - указаны через наклонную черту общая и нижняя облачность в баллах и высота нижней границы облаков в метрах; квадратными скобками обозначены формы облаков: Ci - перистые, Cs - перисто-слоистые, Cc - перисто-кучевые, Ac - высококучевые, As - высокослоистые, Sc - слоисто-кучевые, Ns - слоисто-дождевые, Cu - кучевые, Cb - кучево-дождевые. Подробнее классификацию облаков см. в Атласе облаков (PDF).
T - Температура воздуха - температура, измеренная на высоте 2 м над землей.
Td - Температура точки росы - температура, при понижении до которой содержащийся в воздухе водяной пар достигнет насыщения.
f - Относительная влажность воздуха - влажноcть воздуха, измеренная на высоте 2 м над землей.
Te - Эффективная температура - температура, которую ощущает одетый по сезону человек в тени. Характеристика душности погоды. При расчете учитывается влияние влажности воздуха и скорости ветра на теплоощущения человека.
Tes - Эффективная температура на солнце - температура, которую ощущает человек, с поправкой на солнечный нагрев. Характеристика знойности погоды. Зависит от высоты солнца над горизонтом, облачности и скорости ветра. Ночью, в пасмурную погоду, а также при ветре 12 м/с и более поправка равна нулю.
P - Атмосферное давление - приведенное к уровню моря атмосферное давление.
Po - Атмосферное давление - измеренное на уровне метеостанции атмосферное давление.
Tmin - Минимальная температура - минимум температуры воздуха на высоте 2 м над землей.
Tmax - Максимальная температура - максимум температуры воздуха на высоте 2 м над землей.
R - Количество осадков - Количество выпавших осадков за период времени, мм. При наведении курсора мыши на число - период времени, за который выпало указанное количество осадков.
R24 - Количество осадков - Количество выпавших осадков за 24 часа, мм.
S - Снежный покров - Высота снежного покрова, см. При наведении курсора мыши на число - состояние снежного покрова и степень покрытия местности в баллах.